Simultaneous Nadir Overpasses (SNOs) Predictions

Prediction of SNOs between NOAA-19 and METOP-C Satellite Orbit:

Table of predicted SNOs for the next 14.0 days since TLE Epoch: 4/3/2021
Index Date (NOAA-19) Time (NOAA-19) Lat,Lon (NOAA-19) SZA (NOAA-19 ) Date (METOP-C) Time (METOP-C) Lat,Lon (METOP-C) SZA (METOP-C ) Distance(km) Time Diff (sec)
1 04/11/2021 12:29:47 -80.45,-159.98 107.02 04/11/2021 12:30:52 -80.46,-159.87 106.98 2.25 65
2 04/11/2021 13:20:42 80.46, 7.26 72.97 04/11/2021 13:21:33 80.44, 7.20 72.97 1.87 51
3 04/11/2021 14:11:46 -80.45, 174.65 107.04 04/11/2021 14:12:13 -80.45, 174.66 107.03 0.44 27
4 04/11/2021 15:02:42 80.45, -18.10 72.95 04/11/2021 15:02:54 80.46, -17.95 72.98 2.93 12
5 04/11/2021 15:53:46 -80.44, 149.29 107.06 04/11/2021 15:53:35 -80.44, 149.18 107.07 1.91 11
6 04/11/2021 16:44:42 80.44, -43.46 72.93 04/11/2021 16:44:16 80.45, -43.42 72.93 0.88 26
7 04/11/2021 17:35:46 -80.43, 123.92 107.08 04/11/2021 17:34:56 -80.46, 124.03 107.07 3.18 50



Historial Predications of SNOs between NOAA-19 and METOP-C
